Regional Weather Roundup
Issued by NWS State College, PA

Home | Current Version | Previous Version | Graphics & Text | Print | Product List | Glossary On
Versions: 1 2 3 4 5 6 7 8 9 10 11 12 13 14 15 16 17 18 19 20 21 22 23 24 25 26 27 28 29 30 31 32 33 34 35 36 37 38 39 40 41 42 43 44 45 46 47 48 49 50
000
ASUS41 KCTP 252203
RWRCTP

REGIONAL WEATHER ROUNDUP
NATIONAL WEATHER SERVICE STATE COLLEGE PA
600 PM EDT THU AUG 25 2016

Note: "fair" indicates few or no clouds below 12,000 feet with no
significant weather and/or obstructions to visibility.

* = STATION THAT DOES NOT REPORT PRECIPITATION /E.G. RAIN...SNOW...ETC/
    THUNDER OR FOG.

PAZ002>004-007>009-013>016-020>023-029>032-252300-
WESTERN PENNSYLVANIA

CITY           SKY/WX    TMP DP  RH WIND       PRES   REMARKS
ERIE           RAIN      79  73  82 SW14G29   29.97R
MEADVILLE      CLOUDY    83  69  62 S8        29.98F
FRANKLIN*        N/A     82  70  65 S12       30.02F
NEW CASTLE     FAIR      88  72  58 SW7       30.00F
BEAVER COUNTY  MOSUNNY   88  70  55 SW14      30.02F
BUTLER*        NOT AVBL
PITTSBURGH INT PTSUNNY   87  70  56 SW9       30.02F
PITTSBURGH     MOSUNNY   86  71  60 SW9G20    30.03F
INDIANA*       MOSUNNY   84  72  65 SW12      30.07S
LATROBE        MOSUNNY   84  73  70 SW12      30.05F
WASHINGTON CO* SUNNY     84  73  70 SW8       30.06S
$$

PAZ004>006-010>012-017>019-024>028-033>037-041-042-045-046-049>053-252300-
CENTRAL PENNSYLVANIA

CITY           SKY/WX    TMP DP  RH WIND       PRES   REMARKS
BRADFORD       SUNNY     80  69  69 SW3       30.05S
DUBOIS         MOSUNNY   83  68  60 SW12      30.05S
CLEARFIELD     MOSUNNY   86  70  58 SW8       30.04S
JOHNSTOWN      MOSUNNY   80  69  69 W8        30.10F
ALTOONA        SUNNY     85  68  56 W9        30.06S
STATE COLLEGE  MOSUNNY   84  72  65 S9        30.02F
WILLIAMSPORT   SUNNY     85  72  65 VRB3      29.96F
SELINSGROVE    MOSUNNY   86  74  67 VRB5      29.99F
FT INDIANTOWN  MOSUNNY   86  71  62 S5        30.00F
CAPITAL CITY   SUNNY     90  69  50 S3        29.99F
HARRISBURG     PTSUNNY   87  75  67 SE6       29.98F HX  96
YORK           SUNNY     88  71  57 VRB3      30.00F
$$

PAZ038>040-043-044-047-048-054-055-060>062-067>071-252300-
EASTERN PENNSYLVANIA

CITY           SKY/WX    TMP DP  RH WIND       PRES   REMARKS
SCRANTON       SUNNY     79  72  79 SW8       30.02F
MOUNT POCONO   CLOUDY    72  68  87 W8        30.08S
ALLENTOWN      CLOUDY    82  70  66 W7        30.01F
QUAKERTOWN*    MOCLDY    82  72  69 CALM      30.03S
READING        PTSUNNY   84  71  65 SW8       30.00S
LANCASTER      PTSUNNY   84  75  74 S8        30.01F
COATESVILLE    MOCLDY    81  72  74 CALM      30.05F
POTTSTOWN      CLOUDY    81  71  71 SW7       30.04S
BLUE BELL      CLOUDY    81  70  69 SW12      30.02S
DOYLESTOWN     PTSUNNY   84  71  65 SW9       30.01F
WILLOW GROVE   NOT AVBL
NORTH PHILA    CLOUDY    85  72  65 SW10      30.02F
PHILADELPHIA   PTSUNNY   84  71  65 SW12      30.02F
$$




USA.gov is the U.S. government's official web portal to all federal, state and local government web resources and services.